SPACEBEENZ-18 (52398 NORAD) Tracking and Keplerian Element Data

This shows tracking and keplerian element data for the satellite.

Feedback or suggestion? Click here.




ElementValue
Catalog52398
NameSPACEBEENZ-18
Epoch Orbit1202
Epoch Day192.73034435
Epoch Year2022
RAAN277.1168
Inclination97.4505
Eccentricity0.0010687
Argument of Perigee93.5371
Mean Anonmoly266.7083
Mean Motion15.14134982
Decay Rate9.137E-05
L11 52398U 22047E 22192.73034435 .00009137 00000+0 50404-3 0 9992
L22 52398 97.4505 277.1168 0010687 93.5371 266.7083 15.14134982 12026

Live tracking and technical data element details for SPACEBEENZ-18 (NORAD 52398). SPACEBEENZ-18 can be tracked NOW for your location showing map with azimuth and elevation plus other details from your city location.

Track the satellite on the map from your city or location and see movement details for azimuth, elevation, latitude, longitude, range, height, and movement on the map or in text.







IsCatalogInMostPopularTable: catalog: 52398, numindb: 5
Update: records affected: 1



GetName: 52398 SPACEBEENZ-18

Hit Count: updated at: Sun, 14 Aug 2022 00:03:07 GMT